This demonstration page uses our WeatherBlox Daily Observations layout. Learn more.

39.92423, -83.80882

Hourly Observations for September 17, 2020

Temp ( °F °C ) Dew Point ( °F °C ) Humidity (%) Winds ( mph kmh ) Pressure ( in mb ) Visibility ( mi km ) Precip ( " mm )
12:56 am 00:56 Clear 55 12.8 55 12.8 100 100 Calm 30.06 1018 10 16.0934 0 0
1:56 am 01:56 Clear 54 12.2 54 12.2 100 100 Calm 30.05 1018 10 16.0934 0 0
2:56 am 02:56 Clear 52 11.1 52 11.1 100 100 Calm 30.03 1017 8 12.87472 0 0
3:42 am 03:42 Partly Cloudy with Mist and Fog 50 10 50 10 100 100 E 3 6 30.03 1017 2.5 4.02335 0 0
3:44 am 03:44 Mostly Cloudy with Mist and Fog 50 10 50 10 100 100 E 3 6 30.03 1017 0.75 1.207005 0 0
3:52 am 03:52 Mostly Cloudy with Fog 50 10 50 10 100 100 Calm 30.03 1017 0.5 0.80467 0 0
3:56 am 03:56 Partly Cloudy with Mist and Fog 50 10 50 10 100 100 Calm 30.01 1016 1.5 2.41401 0 0
3:58 am 03:58 Partly Cloudy with Mist and Fog 50 10 50 10 100 100 Calm 30.03 1017 4 6.43736 0 0
4:12 am 04:12 Partly Cloudy with Mist and Fog 50 10 50 10 100 100 Calm 30.02 1017 1.5 2.41401 0 0
4:14 am 04:14 Mostly Cloudy with Mist and Fog 50 10 50 10 100 100 Calm 30.02 1017 0.75 1.207005 0 0
4:27 am 04:27 Mostly Clear with Mist and Fog 52 11 52 11 100 100 E 3 6 30.03 1017 1.75 2.816345 0 0
4:29 am 04:29 Mostly Clear with Mist and Fog 52 11 52 11 100 100 E 3 6 30.03 1017 3 4.82802 0 0
4:56 am 04:56 Clear with Mist and Fog 51 10.6 51 10.6 100 100 Calm 30.01 1016 0.75 1.207005 0 0
5:03 am 05:03 Clear with Fog 50 10 50 10 100 100 Calm 30.02 1017 0.5 0.80467 0 0
5:11 am 05:11 Mostly Cloudy with Fog 50 10 50 10 100 100 NE 3 6 30.03 1017 0.25 0.402335 0 0
5:43 am 05:43 Mostly Cloudy with Mist and Fog 48 9 48 9 100 100 Calm 30.04 1017 0.75 1.207005 0 0
5:49 am 05:49 Partly Cloudy with Mist and Fog 48 9 48 9 100 100 Calm 30.04 1017 1.25 2.011675 0 0
5:56 am 05:56 Mostly Cloudy with Mist and Fog 49 9.4 49 9.4 100 100 Calm 30.01 1016 0.75 1.207005 0 0
6:16 am 06:16 Mostly Cloudy with Fog 48 9 48 9 100 100 Calm 30.04 1017 0.5 0.80467 0 0
6:32 am 06:32 Cloudy with Fog 48 9 48 9 100 100 Calm 30.04 1017 0.25 0.402335 0 0
6:41 am 06:41 Cloudy with Fog 46 8 46 8 100 100 Calm 30.04 1017 0.5 0.80467 0 0
6:53 am 06:53 Cloudy with Fog 48 9 48 9 100 100 Calm 30.05 1017 0.25 0.402335 0 0
6:56 am 06:56 Cloudy with Fog 48 8.9 48 8.9 100 100 Calm 30.03 1017 0.25 0.402335 0 0
7:06 am 07:06 Cloudy with Mist and Fog 48 9 48 9 100 100 Calm 30.05 1017 0.75 1.207005 0 0
7:09 am 07:09 Cloudy with Mist and Fog 48 9 48 9 100 100 Calm 30.05 1017 1.5 2.41401 0 0
7:11 am 07:11 Cloudy with Mist and Fog 48 9 48 9 100 100 Calm 30.05 1017 3 4.82802 0 0
7:13 am 07:13 Cloudy with Mist and Fog 48 9 48 9 100 100 Calm 30.05 1017 1.75 2.816345 0 0
7:15 am 07:15 Cloudy with Mist and Fog 46 8 46 8 100 100 Calm 30.05 1018 0.75 1.207005 0 0
7:29 am 07:29 Cloudy with Fog 46 8 46 8 100 100 Calm 30.05 1018 0.25 0.402335 0 0
7:56 am 07:56 Cloudy with Fog 46 7.8 46 7.8 100 100 ENE 3 6 30.04 1017 0.5 0.80467 0 0
8:00 am 08:00 Mostly Cloudy with Mist and Fog 46 8 46 8 100 100 NE 5 7 30.06 1018 1.25 2.011675 0 0
8:07 am 08:07 Mostly Cloudy with Mist and Fog 48 9 48 9 100 100 ENE 3 6 30.05 1017 4 6.43736 0 0
8:18 am 08:18 Mostly Sunny 50 10 50 10 100 100 Calm 30.04 1017 7 11.26538 0 0
8:56 am 08:56 Sunny 56 13.3 56 13.3 100 100 Calm 30.03 1017 10 16.0934 0 0
9:56 am 09:56 Sunny 63 17.2 58 14.4 84 84 E 7 11 30.04 1017 10 16.0934 0 0
10:56 am 10:56 Sunny 70 21.1 59 15 68 68 ENE 9 15 30.05 1018 10 16.0934 0 0
11:56 am 11:56 Sunny 73 22.8 60 15.6 64 64 NE 13 20 30.04 1017 10 16.0934 0 0
12:56 pm 12:56 Mostly Sunny 74 23.3 63 17.2 69 69 NE 10 17 30.04 1017 10 16.0934 0 0
1:56 pm 13:56 Sunny 74 23.3 62 16.7 67 67 ENE 9 15 30.04 1017 10 16.0934 0 0
2:56 pm 14:56 Partly Cloudy 75 23.9 62 16.7 64 64 NE 13 20 30.02 1017 10 16.0934 0 0
3:56 pm 15:56 Partly Cloudy 75 23.9 62 16.7 64 64 NE 15 24 30.01 1016 10 16.0934 0 0
4:20 pm 16:20 Partly Cloudy 73 23 61 16 65 65 NNE 13 20 29.97 1015 10 16.0934 0 0
4:56 pm 16:56 Partly Cloudy 71 21.7 60 15.6 68 68 NNE 12 19 30.01 1016 10 16.0934 0 0
5:56 pm 17:56 Partly Cloudy 70 21.1 59 15 68 68 NNE 15 24 30.01 1016 10 16.0934 0 0
6:56 pm 18:56 Partly Cloudy 66 18.9 57 13.9 73 73 NE 12 19 30.02 1017 10 16.0934 0 0
7:56 pm 19:56 Cloudy 65 18.3 55 12.8 70 70 NNE 14 22 30.04 1017 10 16.0934 0 0
8:56 pm 20:56 Partly Cloudy 62 16.7 53 11.7 73 73 NNE 10 17 30.06 1018 10 16.0934 0 0
9:56 pm 21:56 Cloudy 61 16.1 52 11.1 72 72 NNE 15 24 30.07 1018 10 16.0934 0 0
10:56 pm 22:56 Cloudy 61 16.1 51 10.6 70 70 NE 13 20 30.06 1018 10 16.0934 0 0
11:56 pm 23:56 Cloudy 61 16.1 52 11.1 72 72 NE 14 22 30.06 1018 10 16.0934 0 0

Powered by AerisWeather